Location: Hopville
(44.8032°N, 123.1329°W)
Time: 17:06:30
(UTC+00:00)

Cosmos 1892 - Pass Details

Date: 24 January 2021
Orbit: 504 x 522 km, 82.5° (Epoch: 28 February)

Event Time Altitude Azimuth Distance (km) Brightness Sun altitude
Rises 14:54:53 0° 352° (N) 2,643 6.0 -8.2°
Reaches altitude 10° 14:57:01 10° 353° (N) 1,754 5.1 -7.8°
Maximum altitude 15:00:52 82° 81° (E) 530 2.8 -7.2°
Drops below altitude 10° 15:04:43 10° 170° (S) 1,749 5.8 -6.5°
Sets 15:06:51 0° 171° (S) 2,633 6.7 -6.2°
